Weather History for Fort Myers, FL

Change the Weather History Date:

Monday, February 25, 2013

  Actual Average Record
Temperature  
Mean Temperature 75 °F 68 °F  
Max Temperature 84 °F 78 °F 92 °F (1962)
Min Temperature 65 °F 57 °F 35 °F (1989)
Degree Days  
Heating Degree Days 0 2  
Month to date heating degree days 44 56  
Since 1 July heating degree days 116 257  
Cooling Degree Days 10 4  
Month to date cooling degree days 116 90  
Year to date cooling degree days 292 173  
Growing Degree Days 24 (Base 50)    
Moisture  
Dew Point 68 °F    
Average Humidity 83    
Maximum Humidity 100    
Minimum Humidity 63    
Precipitation  
Precipitation 0.00 in 0.09 in 2.55 in (2004)
Month to date precipitation 1.84 1.89  
Year to date precipitation 2.46 3.83  
Sea Level Pressure  
Sea Level Pressure 29.87 in    
Wind  
Wind Speed 6 mph (SSE)    
Max Wind Speed 15 mph    
Max Gust Speed 22 mph    
Visibility 7 miles    
Events Fog    
T = Trace of Precipitation, MM = Missing Value Source: NWS Daily Summary

Daily Weather History Graph

Daily Weather History Graph

Search for Another Location

Airport:

Trip Planner

Search our weather history database for the weather conditions in past years. The results will help you decide how hot, cold, wet, or windy it might be!

Date:

Astronomy

Feb. 25, 2013 Rise Set
Actual Time 6:54 AM EST 6:26 PM EST
Civil Twilight 6:31 AM EST 6:49 PM EST
Nautical Twilight 6:04 AM EST 7:16 PM EST
Astronomical Twilight 5:37 AM EST 7:43 PM EST
Moon 6:32 PM EST (2/25) 6:27 AM EST (2/25)
Length of Visible Light 12h 18m
Length of Day
11h 31m
Full, 100% of the Moon is Illuminated
Feb 25
Full
Feb 25
Full
Mar 4
Last Quarter
Mar 11
New
Mar 19
First Quarter

Hourly Weather History & Observations

Time (EST) Temp. Heat Index Dew Point Humidity Pressure Visibility Wind Dir Wind Speed Gust Speed Precip Events Conditions
12:09 AM 69.8 °F - 69.8 °F 100% 29.93 in 3.0 mi NE 6.9 mph - N/A   Scattered Clouds
12:18 AM 69.8 °F - 69.8 °F 100% 29.93 in 1.8 mi NE 5.8 mph - N/A   Mostly Cloudy
12:25 AM 69.8 °F - 69.8 °F 100% 29.93 in 0.5 mi NE 5.8 mph - N/A Fog Fog
12:42 AM 69.8 °F - 69.8 °F 100% 29.91 in 1.8 mi Calm Calm - N/A   Mostly Cloudy
12:49 AM 69.8 °F - 68.0 °F 94% 29.91 in 3.0 mi East 3.5 mph - N/A   Mostly Cloudy
12:53 AM 69.1 °F - 68.0 °F 96% 29.91 in 3.0 mi East 4.6 mph - N/A   Scattered Clouds
1:53 AM 69.1 °F - 66.9 °F 93% 29.89 in 4.0 mi ESE 3.5 mph - N/A   Clear
2:53 AM 68.0 °F - 66.0 °F 93% 29.88 in 5.0 mi Calm Calm - N/A   Clear
3:53 AM 66.9 °F - 66.0 °F 97% 29.87 in 5.0 mi ESE 3.5 mph - N/A   Clear
4:53 AM 66.9 °F - 66.0 °F 97% 29.86 in 5.0 mi SE 3.5 mph - N/A   Clear
5:53 AM 66.9 °F - 64.9 °F 93% 29.87 in 5.0 mi Calm Calm - N/A   Clear
6:53 AM 66.9 °F - 66.0 °F 97% 29.87 in 4.0 mi Calm Calm - N/A   Mostly Cloudy
7:53 AM 69.1 °F - 66.9 °F 93% 29.91 in 5.0 mi SE 3.5 mph - N/A   Mostly Cloudy
8:53 AM 73.0 °F - 66.9 °F 81% 29.90 in 10.0 mi SE 6.9 mph - N/A   Partly Cloudy
9:53 AM 78.1 °F - 70.0 °F 76% 29.91 in 10.0 mi SSE 5.8 mph - N/A   Partly Cloudy
10:48 AM 80.6 °F 83.9 °F 69.8 °F 70% 29.89 in 10.0 mi South 8.1 mph - N/A   Mostly Cloudy
10:53 AM 80.1 °F 83.2 °F 70.0 °F 71% 29.89 in 10.0 mi South 8.1 mph - N/A   Mostly Cloudy
11:41 AM 82.4 °F 86.3 °F 69.8 °F 66% 29.87 in 10.0 mi South 10.4 mph 21.9 mph N/A   Scattered Clouds
11:53 AM 82.0 °F 85.5 °F 69.1 °F 65% 29.88 in 10.0 mi SW 12.7 mph 17.3 mph N/A   Scattered Clouds
12:53 PM 82.9 °F 85.8 °F 68.0 °F 60% 29.86 in 10.0 mi South 13.8 mph - N/A   Scattered Clouds
1:53 PM 82.0 °F 85.5 °F 69.1 °F 65% 29.84 in 10.0 mi SSW 11.5 mph - N/A   Mostly Cloudy
2:53 PM 82.0 °F 85.5 °F 69.1 °F 65% 29.82 in 10.0 mi SSW 11.5 mph 19.6 mph N/A   Scattered Clouds
3:53 PM 81.0 °F 84.1 °F 69.1 °F 67% 29.82 in 10.0 mi SSW 9.2 mph 18.4 mph N/A   Clear
4:53 PM 80.1 °F 82.7 °F 68.0 °F 67% 29.81 in 10.0 mi SSW 10.4 mph - N/A   Partly Cloudy
5:53 PM 79.0 °F - 66.9 °F 66% 29.82 in 10.0 mi SSW 8.1 mph - N/A   Partly Cloudy
6:53 PM 77.0 °F - 69.1 °F 76% 29.82 in 10.0 mi SSW 4.6 mph - N/A   Clear
7:53 PM 75.9 °F - 69.1 °F 79% 29.82 in 10.0 mi Calm Calm - N/A   Clear
8:53 PM 73.9 °F - 68.0 °F 82% 29.83 in 10.0 mi SE 4.6 mph - N/A   Clear
9:53 PM 73.9 °F - 69.1 °F 85% 29.83 in 10.0 mi SSE 3.5 mph - N/A   Clear
10:53 PM 73.9 °F - 69.1 °F 85% 29.84 in 9.0 mi SSE 4.6 mph - N/A   Partly Cloudy
11:53 PM 73.9 °F - 70.0 °F 87% 29.83 in 9.0 mi SSE 9.2 mph - N/A   Clear